Burley, ID

9:39 AM MDT on June 27, 2017 (GMT -0600)
Burley Municipal

Weather History for KBYI - December, 2013

Change the Weather History Date:

Tuesday, December 3, 2013

  Actual Average Record
Temperature  
Mean Temperature 19 °F 29 °F  
Max Temperature 27 °F 37 °F 61 °F (1958)
Min Temperature 10 °F 20 °F 7 °F (2011)
Degree Days  
Heating Degree Days 46 36  
Month to date heating degree days 90 108  
Since 1 July heating degree days 1658 1796  
Cooling Degree Days 0 0  
Month to date cooling degree days 0 0  
Year to date cooling degree days 642 365  
Moisture  
Dew Point 13 °F    
Average Humidity 68    
Maximum Humidity 81    
Minimum Humidity 55    
Precipitation  
Precipitation T in 0.04 in 0.75 in (1950)
Month to date precipitation 0.06 0.12  
Year to date precipitation 4.58 9.13  
Sea Level Pressure  
Sea Level Pressure 29.83 in    
Wind  
Wind Speed 13 mph (ENE)    
Max Wind Speed 22 mph    
Max Gust Speed 28 mph    
Visibility 9 miles    
Events Snow    
T = Trace of Precipitation, MM = Missing Value Source: NWS Daily Summary

Daily Weather History Graph

Daily Weather History Graph

Search for Another Location

Airport or City:

Trip Planner

Search our weather history database for the weather conditions in past years. The results will help you decide how hot, cold, wet, or windy it might be!

Date:

Astronomy

Dec. 03, 2013 Rise Set
Actual Time 7:47 AM MST 5:02 PM MST
Civil Twilight 7:16 AM MST 5:33 PM MST
Nautical Twilight 6:40 AM MST 6:09 PM MST
Astronomical Twilight 6:06 AM MST 6:43 PM MST
Moon 8:20 AM MST (12/3) 6:10 PM MST (12/3)
Length of Visible Light 10h 17m
Length of Day
9h 14m
New Moon, 1% of the Moon is Illuminated
Dec 3
New Moon
Dec 9
First Quarter
Dec 17
Full
Dec 25
Last Quarter
Jan 1
New

Hourly Weather History & Observations

Time (MST) Temp. Windchill Dew Point Humidity Pressure Visibility Wind Dir Wind Speed Gust Speed Precip Events Conditions
12:53 AM 27.0 °F 14.7 °F 19.9 °F 75% 29.78 in 10.0 mi WSW 16.1 mph - N/A   Overcast
1:53 AM 26.1 °F 12.3 °F 19.0 °F 75% 29.76 in 10.0 mi West 19.6 mph 26.5 mph N/A   Overcast
2:53 AM 26.1 °F 13.6 °F 19.0 °F 75% 29.77 in 10.0 mi WSW 16.1 mph 20.7 mph N/A   Overcast
3:53 AM 25.0 °F 14.2 °F 19.0 °F 78% 29.75 in 10.0 mi West 11.5 mph 19.6 mph N/A   Mostly Cloudy
4:53 AM 24.1 °F 12.0 °F 18.0 °F 77% 29.73 in 10.0 mi West 13.8 mph 23.0 mph N/A   Scattered Clouds
5:53 AM 23.0 °F 10.1 °F 17.1 °F 78% 29.74 in 10.0 mi West 15.0 mph 24.2 mph N/A   Mostly Cloudy
6:53 AM 23.0 °F 9.2 °F 17.1 °F 78% 29.77 in 10.0 mi West 17.3 mph 24.2 mph N/A   Partly Cloudy
7:53 AM 23.0 °F 9.6 °F 16.0 °F 74% 29.80 in 10.0 mi West 16.1 mph 24.2 mph N/A   Clear
8:53 AM 21.9 °F 8.2 °F 15.1 °F 75% 29.81 in 10.0 mi West 16.1 mph 24.2 mph N/A   Clear
9:53 AM 21.9 °F 11.0 °F 16.0 °F 78% 29.85 in 10.0 mi West 10.4 mph - N/A   Clear
10:53 AM 23.0 °F 13.1 °F 16.0 °F 74% 29.85 in 10.0 mi WNW 9.2 mph 16.1 mph N/A   Partly Cloudy
11:40 AM 23.0 °F 13.1 °F 17.1 °F 78% 29.78 in 10.0 mi WNW 9.2 mph - N/A   Mostly Cloudy
11:53 AM 23.0 °F 13.9 °F 16.0 °F 74% 29.87 in 10.0 mi West 8.1 mph - N/A   Overcast
12:53 PM 23.0 °F - 16.0 °F 74% 29.85 in 10.0 mi Calm Calm - N/A   Overcast
1:25 PM 21.9 °F 13.4 °F 17.1 °F 82% 29.76 in 4.0 mi ENE 6.9 mph - 0.00 in Snow Light Snow
1:45 PM 21.9 °F 14.5 °F 17.1 °F 82% 29.76 in 2.0 mi East 5.8 mph - 0.00 in Snow Light Snow
1:53 PM 21.9 °F 14.5 °F 17.1 °F 82% 29.85 in 1.2 mi East 5.8 mph - 0.00 in Snow Light Snow
2:01 PM 21.9 °F 12.5 °F 17.1 °F 82% 29.76 in 3.0 mi East 8.1 mph - 0.00 in Snow Light Snow
2:29 PM 21.9 °F 13.4 °F 15.1 °F 75% 29.78 in 4.0 mi East 6.9 mph - 0.00 in Snow Light Snow
2:40 PM 21.9 °F 12.5 °F 16.0 °F 78% 29.77 in 9.0 mi ESE 8.1 mph - 0.00 in Snow Light Snow
2:53 PM 21.9 °F 13.4 °F 15.1 °F 75% 29.86 in 10.0 mi ESE 6.9 mph - 0.00 in   Overcast
3:49 PM 21.2 °F 10.1 °F 14.0 °F 74% 29.78 in 10.0 mi ENE 10.4 mph - N/A   Overcast
3:53 PM 21.9 °F 11.0 °F 14.0 °F 72% 29.87 in 10.0 mi ENE 10.4 mph - N/A   Overcast
4:24 PM 21.9 °F 12.5 °F 12.0 °F 66% 29.79 in 10.0 mi ENE 8.1 mph - N/A   Overcast
4:53 PM 21.0 °F 9.9 °F 10.9 °F 65% 29.88 in 10.0 mi ENE 10.4 mph - N/A   Overcast
5:53 PM 19.0 °F 5.6 °F 7.0 °F 59% 29.91 in 10.0 mi East 13.8 mph - N/A   Mostly Cloudy
6:53 PM 19.0 °F 4.0 °F 6.1 °F 57% 29.92 in 10.0 mi ENE 17.3 mph 23.0 mph N/A   Overcast
7:53 PM 16.0 °F 0.1 °F 3.0 °F 57% 29.94 in 10.0 mi ENE 17.3 mph - N/A   Overcast
8:53 PM 14.0 °F -2.0 °F -0.0 °F 54% 29.96 in 10.0 mi East 16.1 mph - N/A   Mostly Cloudy
9:53 PM 12.0 °F -4.5 °F 1.0 °F 61% 29.98 in 10.0 mi East 16.1 mph 23.0 mph N/A   Mostly Cloudy
10:53 PM 10.9 °F -5.4 °F -0.9 °F 59% 29.99 in 10.0 mi East 15.0 mph - N/A   Clear
11:53 PM 10.0 °F -6.5 °F -0.9 °F 61% 30.00 in 10.0 mi East 15.0 mph - N/A   Clear